Location: Izdebno
(52.6670°N, 16.2170°E)
Time: 05:38:39
(UTC+02:00)

A-11 Canister half - Pass Details

Date: 09 February 2023
Orbit: 1526 x 1682 km, 47.3° (Epoch: 25 March)

Event Time Altitude Azimuth Distance (km) Brightness Sun altitude
Rises 03:42:50 0° 211° (SSW) 4,684 - -33.6°
Reaches altitude 10° 03:46:14 10° 203° (SSW) 3,694 - -33.1°
Exits shadow 03:50:48 26° 179° (S) 2,634 10.0 -32.4°
Maximum altitude 03:54:11 33° 143° (SE) 2,332 10.0 -31.9°
Drops below altitude 10° 04:02:10 10° 84° (E) 3,712 11.9 -30.8°
Sets 04:05:35 0° 75° (ENE) 4,710 12.7 -30.3°
